| time (UTC) | temp F | wind direction | speed MPH | gust MPH | rain 1hr in | rain 24hr in | rain mn in | humidity % | barometer mb |
| 20260903201600 | 79 | 332 | 9.0 | 18.0 | 0.00 | 0.00 | 0.00 | 14 | 1002.5 |
| 20260903200058 | 78 | 350 | 7.0 | 15.0 | 0.00 | 0.00 | 0.00 | 15 | 1002.5 |
| 20260903194557 | 78 | 314 | 6.0 | 13.0 | 0.00 | 0.00 | 0.00 | 15 | 1002.9 |
| 20260903193055 | 77 | 20 | 5.0 | 15.0 | 0.00 | 0.00 | 0.00 | 16 | 1003.2 |
| 20260903191552 | 77 | 339 | 4.0 | 16.0 | 0.00 | 0.00 | 0.00 | 16 | 1003.4 |
| 20260903190050 | 76 | 11 | 5.0 | 13.0 | 0.00 | 0.00 | 0.00 | 16 | 1003.7 |
| 20260903184557 | 76 | 319 | 7.0 | 14.0 | 0.00 | 0.00 | 0.00 | 16 | 1003.8 |
| 20260903183046 | 75 | 51 | 8.0 | 21.0 | 0.00 | 0.00 | 0.00 | 17 | 1004.1 |
| 20260903181545 | 75 | 85 | 11.0 | 19.0 | 0.00 | 0.00 | 0.00 | 16 | 1004.4 |
| 20260903180048 | 74 | 333 | 6.0 | 24.0 | 0.00 | 0.00 | 0.00 | 17 | 1004.4 |
| 20260903174603 | 74 | 222 | 5.0 | 14.0 | 0.00 | 0.00 | 0.00 | 17 | 1004.3 |
| 20260903173042 | 74 | 347 | 5.0 | 12.0 | 0.00 | 0.00 | 0.00 | 17 | 1004.4 |
| 20260903171539 | 73 | 326 | 5.0 | 17.0 | 0.00 | 0.00 | 0.00 | 17 | 1004.5 |
| 20260903170103 | 72 | 356 | 6.0 | 18.0 | 0.00 | 0.00 | 0.00 | 16 | 1004.6 |
| 20260903164545 | 72 | 39 | 2.0 | 17.0 | 0.00 | 0.00 | 0.00 | 18 | 1004.7 |
| 20260903163036 | 72 | 273 | 9.0 | 24.0 | 0.00 | 0.00 | 0.00 | 16 | 1004.6 |
| 20260903161534 | 71 | 326 | 4.0 | 15.0 | 0.00 | 0.00 | 0.00 | 17 | 1004.5 |
| 20260903160035 | 71 | 297 | 7.0 | 15.0 | 0.00 | 0.00 | 0.00 | 16 | 1004.6 |
| 20260903154535 | 70 | 9 | 8.0 | 14.0 | 0.00 | 0.00 | 0.00 | 16 | 1004.5 |
| 20260903153032 | 70 | 20 | 6.0 | 14.0 | 0.00 | 0.00 | 0.00 | 18 | 1004.8 |
| 20260903151535 | 70 | 78 | 3.0 | 11.0 | 0.00 | 0.00 | 0.00 | 19 | 1005.0 |
| 20260903150032 | 69 | 22 | 1.0 | 8.0 | 0.00 | 0.00 | 0.00 | 18 | 1005.0 |
| 20260903144533 | 68 | 42 | 1.0 | 11.0 | 0.00 | 0.00 | 0.00 | 20 | 1005.0 |
| 20260903143029 | 68 | 11 | 5.0 | 11.0 | 0.00 | 0.00 | 0.00 | 20 | 1004.9 |
| 20260903141528 | 67 | 138 | 1.0 | 13.0 | 0.00 | 0.00 | 0.00 | 21 | 1004.8 |
| 20260903140028 | 66 | 337 | 4.0 | 8.0 | 0.00 | 0.00 | 0.00 | 19 | 1004.7 |
| 20260903134528 | 66 | 39 | 5.0 | 13.0 | 0.00 | 0.00 | 0.00 | 19 | 1004.6 |
| 20260903133024 | 65 | 26 | 5.0 | 10.0 | 0.00 | 0.00 | 0.00 | 20 | 1004.5 |
| 20260903131521 | 65 | 56 | 7.0 | 12.0 | 0.00 | 0.00 | 0.00 | 20 | 1004.2 |
| 20260903130020 | 65 | 36 | 8.0 | 15.0 | 0.00 | 0.00 | 0.00 | 21 | 1003.8 |
| 20260903124516 | 65 | 53 | 6.0 | 11.0 | 0.00 | 0.00 | 0.00 | 22 | 1003.8 |
| 20260903123014 | 66 | 9 | 4.0 | 12.0 | 0.00 | 0.00 | 0.00 | 22 | 1003.9 |
| 20260903121511 | 66 | 60 | 3.0 | 13.0 | 0.00 | 0.00 | 0.00 | 22 | 1003.7 |
| 20260903120009 | 66 | 256 | 5.0 | 18.0 | 0.00 | 0.00 | 0.00 | 21 | 1003.7 |
| 20260903114508 | 67 | 191 | 8.0 | 19.0 | 0.00 | 0.00 | 0.00 | 21 | 1003.6 |
| 20260903113005 | 67 | 211 | 3.0 | 12.0 | 0.00 | 0.00 | 0.00 | 21 | 1003.6 |
| 20260903111503 | 68 | 110 | 3.0 | 20.0 | 0.00 | 0.00 | 0.00 | 19 | 1003.6 |
| 20260903110112 | 68 | 218 | 5.0 | 11.0 | 0.00 | 0.00 | 0.00 | 17 | 1003.6 |
| 20260903104631 | 68 | 348 | 4.0 | 12.0 | 0.00 | 0.00 | 0.00 | 17 | 1003.5 |
| 20260903103158 | 68 | 78 | 4.0 | 13.0 | 0.00 | 0.00 | 0.00 | 17 | 1003.5 |
| 20260903101557 | 68 | 102 | 3.0 | 17.0 | 0.00 | 0.00 | 0.00 | 18 | 1003.5 |
| 20260903100056 | 68 | 313 | 6.0 | 15.0 | 0.00 | 0.00 | 0.00 | 17 | 1003.4 |
| 20260903094605 | 68 | 147 | 6.0 | 15.0 | 0.00 | 0.00 | 0.00 | 18 | 1003.4 |
| 20260903093052 | 68 | 94 | 5.0 | 22.0 | 0.00 | 0.00 | 0.00 | 19 | 1003.3 |
| 20260903091551 | 68 | 102 | 8.0 | 23.0 | 0.00 | 0.00 | 0.00 | 20 | 1003.3 |
| 20260903090051 | 68 | 46 | 6.0 | 17.0 | 0.00 | 0.00 | 0.00 | 19 | 1003.3 |
| 20260903084547 | 68 | 284 | 3.0 | 19.0 | 0.00 | 0.00 | 0.00 | 18 | 1003.2 |
| 20260903083044 | 68 | 214 | 7.0 | 18.0 | 0.00 | 0.00 | 0.00 | 18 | 1003.4 |
| 20260903081543 | 69 | 316 | 2.0 | 15.0 | 0.00 | 0.00 | 0.00 | 19 | 1003.4 |
| 20260903080040 | 69 | 19 | 5.0 | 14.0 | 0.00 | 0.00 | 0.00 | 19 | 1003.3 |
| 20260903074540 | 70 | 91 | 7.0 | 18.0 | 0.00 | 0.00 | 0.00 | 20 | 1003.3 |
| 20260903073045 | 70 | 339 | 6.0 | 19.0 | 0.00 | 0.00 | 0.00 | 19 | 1003.1 |
| 20260903071533 | 71 | 308 | 3.0 | 11.0 | 0.00 | 0.00 | 0.00 | 18 | 1003.0 |
| 20260903070038 | 71 | 326 | 5.0 | 13.0 | 0.00 | 0.00 | 0.00 | 16 | 1002.9 |
| 20260903064527 | 72 | 28 | 6.0 | 13.0 | 0.00 | 0.00 | 0.00 | 16 | 1002.7 |
| 20260903063028 | 72 | 335 | 4.0 | 14.0 | 0.00 | 0.00 | 0.00 | 17 | 1002.6 |
| 20260903061534 | 72 | 257 | 2.0 | 17.0 | 0.00 | 0.00 | 0.00 | 18 | 1002.5 |
| 20260903060018 | 72 | 276 | 5.0 | 8.0 | 0.00 | 0.00 | 0.00 | 18 | 1002.2 |
| 20260903054519 | 72 | 18 | 1.0 | 13.0 | 0.00 | 0.00 | 0.00 | 18 | 1002.3 |
| 20260903053016 | 73 | 167 | 3.0 | 14.0 | 0.00 | 0.00 | 0.00 | 18 | 1002.3 |
| 20260903051516 | 73 | 232 | 5.0 | 10.0 | 0.00 | 0.00 | 0.00 | 18 | 1002.3 |
| 20260903050015 | 74 | 260 | 3.0 | 14.0 | 0.00 | 0.00 | 0.00 | 17 | 1002.4 |
| 20260903044517 | 74 | 193 | 6.0 | 16.0 | 0.00 | 0.00 | 0.00 | 17 | 1002.5 |
| 20260903043013 | 74 | 34 | 3.0 | 8.0 | 0.00 | 0.00 | 0.00 | 17 | 1002.4 |
| 20260903041514 | 75 | 339 | 2.0 | 9.0 | 0.00 | 0.00 | 0.00 | 17 | 1002.2 |
| 20260903040015 | 76 | 246 | 3.0 | 19.0 | 0.00 | 0.00 | 0.00 | 16 | 1002.1 |
| 20260903034513 | 76 | 281 | 3.0 | 13.0 | 0.00 | 0.00 | 0.00 | 14 | 1002.0 |
| 20260903033011 | 76 | 238 | 4.0 | 15.0 | 0.00 | 0.00 | 0.00 | 13 | 1001.9 |
| 20260903031510 | 77 | 82 | 4.0 | 13.0 | 0.00 | 0.00 | 0.00 | 12 | 1001.7 |
| 20260903030011 | 77 | 207 | 8.0 | 16.0 | 0.00 | 0.00 | 0.00 | 13 | 1001.8 |
| 20260903024509 | 77 | 221 | 5.0 | 12.0 | 0.00 | 0.00 | 0.00 | 14 | 1001.5 |
| 20260903023008 | 77 | 321 | 2.0 | 6.0 | 0.00 | 0.00 | 0.00 | 13 | 1001.4 |
| 20260903021511 | 78 | 302 | 5.0 | 13.0 | 0.00 | 0.00 | 0.00 | 13 | 1001.3 |
| 20260903020007 | 78 | 281 | 4.0 | 18.0 | 0.00 | 0.00 | 0.00 | 12 | 1001.4 |
| 20260903014506 | 79 | 239 | 9.0 | 21.0 | 0.00 | 0.00 | 0.00 | 12 | 1001.3 |
| 20260903013005 | 79 | 224 | 4.0 | 14.0 | 0.00 | 0.00 | 0.00 | 12 | 1001.6 |
| 20260903011510 | 79 | 256 | 6.0 | 15.0 | 0.00 | 0.00 | 0.00 | 13 | 1001.7 |
| 20260903010002 | 80 | 252 | 10.0 | 20.0 | 0.00 | 0.00 | 0.00 | 13 | 1001.9 |
| 20260903004501 | 80 | 250 | 8.0 | 23.0 | 0.00 | 0.00 | 0.00 | 14 | 1002.0 |
| 20260903003105 | 79 | 250 | 18.0 | 25.0 | 0.00 | 0.00 | 0.00 | 12 | 1002.0 |
| 20260903001600 | 80 | 235 | 17.0 | 28.0 | 0.00 | 0.00 | 0.00 | 13 | 1001.9 |
| 20260903000059 | 80 | 215 | 9.0 | 15.0 | 0.00 | 0.00 | 0.00 | 14 | 1002.0 |
| 20260902234557 | 80 | 177 | 13.0 | 21.0 | 0.00 | 0.00 | 0.00 | 14 | 1001.9 |
| 20260902233056 | 80 | 235 | 13.0 | 23.0 | 0.00 | 0.00 | 0.00 | 15 | 1002.1 |
| 20260902231609 | 80 | 245 | 11.0 | 25.0 | 0.00 | 0.00 | 0.00 | 16 | 1002.2 |
| 20260902230054 | 80 | 177 | 12.0 | 23.0 | 0.00 | 0.00 | 0.00 | 16 | 1002.4 |
| 20260902224603 | 80 | 236 | 11.0 | 23.0 | 0.00 | 0.00 | 0.00 | 17 | 1002.1 |
| 20260902223055 | 80 | 266 | 13.0 | 32.0 | 0.00 | 0.00 | 0.00 | 16 | 1001.9 |
| 20260902221600 | 80 | 215 | 11.0 | 29.0 | 0.00 | 0.00 | 0.00 | 17 | 1002.3 |
| 20260902220056 | 79 | 240 | 18.0 | 31.0 | 0.00 | 0.00 | 0.00 | 19 | 1002.4 |
| 20260902214542 | 79 | 231 | 13.0 | 29.0 | 0.00 | 0.00 | 0.00 | 21 | 1002.7 |
| 20260902213042 | 79 | 229 | 18.0 | 31.0 | 0.00 | 0.00 | 0.00 | 20 | 1002.6 |
| 20260902211540 | 80 | 215 | 15.0 | 26.0 | 0.00 | 0.00 | 0.00 | 20 | 1002.8 |
| 20260902210045 | 79 | 243 | 11.0 | 26.0 | 0.00 | 0.00 | 0.00 | 20 | 1003.0 |
| 20260902204542 | 79 | 218 | 14.0 | 29.0 | 0.00 | 0.00 | 0.00 | 21 | 1003.1 |
| 20260902203039 | 79 | 288 | 14.0 | 26.0 | 0.00 | 0.00 | 0.00 | 22 | 1003.0 |